Regional Weather Roundup
Issued by NWS Jackson, KY

Home | Current Version | Previous Version | Text Only | Print | Product List | Glossary On
Versions: 1 2 3 4 5 6 7 8 9 10 11 12 13 14 15 16 17 18 19 20 21 22 23 24 25 26 27 28 29 30 31 32 33 34 35 36 37 38 39 40 41 42 43 44 45 46 47 48 49 50
000
ASUS43 KJKL 020010
RWRJKL

EAST KENTUCKY HOURLY WEATHER ROUNDUP
NATIONAL WEATHER SERVICE JACKSON KY
800 PM EDT WED JUL 01 2015

NOTE: "FAIR" INDICATES FEW OR NO CLOUDS BELOW 12,000 FEET WITH
NO SIGNIFICANT WEATHER AND/OR OBSTRUCTIONS TO VISIBILITY.

* THESE REPORTS ARE NOT UNDER NWS QUALITY CONTROL AND MAY NOT
  REPORT WEATHER SUCH AS PRECIPITATION AND FOG.

KYZ079-080-083-085-087-088-110-112-115-119-120-020100
...EASTERN KENTUCKY...

CITY           SKY/WX    TMP DP  RH WIND       PRES   REMARKS
JACKSON        CLOUDY    72  66  81 CALM      29.95S
6HR MIN TEMP:  72; 6HR MAX TEMP:  79; 6HR PCP: TRACE;

LONDON         CLOUDY    72  67  84 SE3       29.94S
6HR MIN TEMP:  71; 6HR MAX TEMP:  77; 6HR PCP:  0.17;

SOMERSET*      TSTM      66  66 100 NE5G12    29.95R VSB 1/2
MONTICELLO*    CLOUDY    74  69  84 SW14      29.96R
6HR MIN TEMP:  73; 6HR MAX TEMP:  79;

MIDDLESBORO*   CLOUDY    71  68  88 CALM      29.96F
6HR MIN TEMP:  69; 6HR MAX TEMP:  78; 6HR PCP:  0.19;

HARLAN APT*      N/A     68  68 100 E3        29.98S
HAZARD APT*    MOCLDY    72  68  88 SW3       29.95S
BLACK MTN*       N/A     61  61 100 S7          N/A
PIKEVILLE APT* MOCLDY    68  68 100 CALM      29.96R FOG
BIG SANDY*     CLOUDY    70  68  92 CALM      29.94S
6HR MIN TEMP:  69; 6HR MAX TEMP:  79;

MOREHEAD APT*  PTCLDY    68  66  94 S7        29.94F FOG
$$

KYZ035-036-041-042-044-050-067-078-099-020100
...CENTRAL KENTUCKY...

CITY           SKY/WX    TMP DP  RH WIND       PRES   REMARKS
MT STERLING*   CLOUDY    70  70 100 CALM      29.95R FOG
FLEMING/MASON* CLOUDY    73  66  78 CALM      29.93R
DANVILLE*      CLOUDY    72  70  94 NW3       29.94R
RICHMOND*      CLOUDY    73  66  78 CALM      29.93R
LEXINGTON      CLOUDY    73  69  87 SE5       29.93R FOG
6HR MIN TEMP:  72; 6HR MAX TEMP:  78; 6HR PCP:  0.09;

FRANKFORT      CLOUDY    73  67  81 W3        29.91R
6HR MIN TEMP:  70; 6HR MAX TEMP:  79; 6HR PCP:  0.04;

$$

KYZ091>093-OHZ055-061-077-WVZ005-015-034-035-042-020100
...SOUTHERN OHIO/WEST VIRGINIA...

CITY           SKY/WX    TMP DP  RH WIND       PRES   REMARKS
COVINGTON      CLOUDY    75  64  68 W3        29.91R
COLUMBUS       MOSUNNY   74  56  53 W8        29.90R
DAYTON         PTSUNNY   76  59  55 CALM      29.92R
WILMINGTON     SUNNY     73  60  63 SW3       29.91R
HUNTINGTON     MOCLDY    75  66  73 CALM      29.90S
CHARLESTON     PTCLDY    76  65  68 SW3       29.91S
PINEVILLE*     LGT RAIN  70  70 100 MISG      30.02S
BECKLEY        LGT RAIN  70  62  76 SW5       30.00R
BLUEFIELD      LGT RAIN  71  63  75 W7        30.03R
$$

VAZ002-007-008-TNZ017-027-036-066-071-020100
...SOUTHWEST VIRGINIA/EAST TENNESSEE...

CITY           SKY/WX    TMP DP  RH WIND       PRES   REMARKS
WISE*          CLOUDY    68  66  94 SW6       30.04S
JONESVILLE*      N/A    N/A N/A N/A MISG        N/A
ABINGDON*      CLOUDY    69  68  95 W9        30.03R
BRISTOL        CLOUDY    69  67  93 S5        30.01S
KNOXVILLE      CLOUDY    71  66  84 SW12      29.98F
OAK RIDGE      CLOUDY    73  67  81 S6        29.98F
CROSSVILLE     CLOUDY    68  64  87 S6        30.01F
NASHVILLE      CLOUDY    71  69  93 SW7       29.98R
$$

...KEY TO REMARKS...
VSB - VISIBILITY IN MILES
WCI - WIND CHILL INDEX
HX  - HEAT INDEX

$$


USA.gov is the U.S. government's official web portal to all federal, state and local government web resources and services.